PWSweather.com
Personal Weather Stations
Station Observations
AZALEAPK1
San Diego, CA 92105

San Diego, CA 92105

Lat: 32.736, Lon: -117.108

Elevation: 302

Station Type: LaCrosse WS-2813U-IT

High Low Average
Temperature 70.0°F21.1°C 0.0°F-17.8°C 58.7°F14.8°C
Dew Point -- -- --
Winds Calm Calm Calm Calm Calm Calm
Wind Gusts -- -- --
Humidity - - -
Pressure 30.00 in1015.9 mb 29.91 in1012.9 mb -
Precipitation 0.00 in0.0 mm - -
Hour Temp Dew Point Humidity Winds Wind Gusts Pressure Precip Precip Rate Daily Precip Total
12:00 AM 62.1°F16.7°C -- - Calm Calm -- 29.93 in1013.5 mb 0.00 in0.0 mm 0.00 in0.0 mm 0.00 in0.0 mm
12:05 AM 61.9°F16.6°C -- - Calm Calm -- 29.93 in1013.5 mb 0.00 in0.0 mm 0.00 in0.0 mm 0.00 in0.0 mm
12:10 AM 61.9°F16.6°C -- - Calm Calm -- 29.93 in1013.5 mb 0.00 in0.0 mm 0.00 in0.0 mm 0.00 in0.0 mm
12:16 AM 61.9°F16.6°C -- - Calm Calm -- 29.93 in1013.5 mb 0.00 in0.0 mm 0.00 in0.0 mm 0.00 in0.0 mm
12:21 AM 61.9°F16.6°C -- - Calm Calm -- 29.92 in1013.2 mb 0.00 in0.0 mm 0.00 in0.0 mm 0.00 in0.0 mm
12:26 AM 61.9°F16.6°C -- - Calm Calm -- 29.92 in1013.2 mb 0.00 in0.0 mm 0.00 in0.0 mm 0.00 in0.0 mm
12:34 AM 61.7°F16.5°C -- - Calm Calm -- 29.92 in1013.2 mb 0.00 in0.0 mm 0.00 in0.0 mm 0.00 in0.0 mm
12:39 AM 61.7°F16.5°C -- - Calm Calm -- 29.92 in1013.2 mb 0.00 in0.0 mm 0.00 in0.0 mm 0.00 in0.0 mm
12:44 AM 61.7°F16.5°C -- - Calm Calm -- 29.92 in1013.2 mb 0.00 in0.0 mm 0.00 in0.0 mm 0.00 in0.0 mm
12:49 AM 61.9°F16.6°C -- - Calm Calm -- 29.92 in1013.2 mb 0.00 in0.0 mm 0.00 in0.0 mm 0.00 in0.0 mm
12:55 AM 61.9°F16.6°C -- - Calm Calm -- 29.92 in1013.2 mb 0.00 in0.0 mm 0.00 in0.0 mm 0.00 in0.0 mm
01:02 AM 61.7°F16.5°C -- - Calm Calm -- 29.91 in1012.9 mb 0.00 in0.0 mm 0.00 in0.0 mm 0.00 in0.0 mm
01:07 AM 61.7°F16.5°C -- - Calm Calm -- 29.91 in1012.9 mb 0.00 in0.0 mm 0.00 in0.0 mm 0.00 in0.0 mm
01:14 AM 61.7°F16.5°C -- - Calm Calm -- 29.91 in1012.9 mb 0.00 in0.0 mm 0.00 in0.0 mm 0.00 in0.0 mm
01:19 AM 61.7°F16.5°C -- - Calm Calm -- 29.91 in1012.9 mb 0.00 in0.0 mm 0.00 in0.0 mm 0.00 in0.0 mm
01:24 AM 61.7°F16.5°C -- - Calm Calm -- 29.91 in1012.9 mb 0.00 in0.0 mm 0.00 in0.0 mm 0.00 in0.0 mm
01:31 AM 61.6°F16.4°C -- - Calm Calm -- 29.91 in1012.9 mb 0.00 in0.0 mm 0.00 in0.0 mm 0.00 in0.0 mm
01:36 AM 61.6°F16.4°C -- - Calm Calm -- 29.91 in1012.9 mb 0.00 in0.0 mm 0.00 in0.0 mm 0.00 in0.0 mm
01:41 AM 61.6°F16.4°C -- - Calm Calm -- 29.91 in1012.9 mb 0.00 in0.0 mm 0.00 in0.0 mm 0.00 in0.0 mm
01:46 AM 61.6°F16.4°C -- - Calm Calm -- 29.91 in1012.9 mb 0.00 in0.0 mm 0.00 in0.0 mm 0.00 in0.0 mm
01:53 AM 61.6°F16.4°C -- - Calm Calm -- 29.91 in1012.9 mb 0.00 in0.0 mm 0.00 in0.0 mm 0.00 in0.0 mm
01:58 AM 61.6°F16.4°C -- - Calm Calm -- 29.91 in1012.9 mb 0.00 in0.0 mm 0.00 in0.0 mm 0.00 in0.0 mm
02:03 AM 61.6°F16.4°C -- - Calm Calm -- 29.91 in1012.9 mb 0.00 in0.0 mm 0.00 in0.0 mm 0.00 in0.0 mm
02:08 AM 61.6°F16.4°C -- - Calm Calm -- 29.91 in1012.9 mb 0.00 in0.0 mm 0.00 in0.0 mm 0.00 in0.0 mm
02:14 AM 61.6°F16.4°C -- - Calm Calm -- 29.91 in1012.9 mb 0.00 in0.0 mm 0.00 in0.0 mm 0.00 in0.0 mm
02:19 AM 61.6°F16.4°C -- - Calm Calm -- 29.92 in1013.2 mb 0.00 in0.0 mm 0.00 in0.0 mm 0.00 in0.0 mm
02:25 AM 61.6°F16.4°C -- - Calm Calm -- 29.92 in1013.2 mb 0.00 in0.0 mm 0.00 in0.0 mm 0.00 in0.0 mm
02:30 AM 61.6°F16.4°C -- - Calm Calm -- 29.91 in1012.9 mb 0.00 in0.0 mm 0.00 in0.0 mm 0.00 in0.0 mm
02:35 AM 61.6°F16.4°C -- - Calm Calm -- 29.92 in1013.2 mb 0.00 in0.0 mm 0.00 in0.0 mm 0.00 in0.0 mm
02:40 AM 61.4°F16.3°C -- - Calm Calm -- 29.92 in1013.2 mb 0.00 in0.0 mm 0.00 in0.0 mm 0.00 in0.0 mm
02:48 AM 61.4°F16.3°C -- - Calm Calm -- 29.92 in1013.2 mb 0.00 in0.0 mm 0.00 in0.0 mm 0.00 in0.0 mm
02:53 AM 61.4°F16.3°C -- - Calm Calm -- 29.92 in1013.2 mb 0.00 in0.0 mm 0.00 in0.0 mm 0.00 in0.0 mm
02:58 AM 61.4°F16.3°C -- - Calm Calm -- 29.92 in1013.2 mb 0.00 in0.0 mm 0.00 in0.0 mm 0.00 in0.0 mm
03:03 AM 61.4°F16.3°C -- - Calm Calm -- 29.92 in1013.2 mb 0.00 in0.0 mm 0.00 in0.0 mm 0.00 in0.0 mm
03:08 AM 61.2°F16.2°C -- - Calm Calm -- 29.92 in1013.2 mb 0.00 in0.0 mm 0.00 in0.0 mm 0.00 in0.0 mm
03:13 AM 61.2°F16.2°C -- - Calm Calm -- 29.92 in1013.2 mb 0.00 in0.0 mm 0.00 in0.0 mm 0.00 in0.0 mm
03:19 AM 61.2°F16.2°C -- - Calm Calm -- 29.92 in1013.2 mb 0.00 in0.0 mm 0.00 in0.0 mm 0.00 in0.0 mm
03:24 AM 61.2°F16.2°C -- - Calm Calm -- 29.92 in1013.2 mb 0.00 in0.0 mm 0.00 in0.0 mm 0.00 in0.0 mm
03:29 AM 61.2°F16.2°C -- - Calm Calm -- 29.92 in1013.2 mb 0.00 in0.0 mm 0.00 in0.0 mm 0.00 in0.0 mm
03:34 AM 61.2°F16.2°C -- - Calm Calm -- 29.91 in1012.9 mb 0.00 in0.0 mm 0.00 in0.0 mm 0.00 in0.0 mm
03:41 AM 61.2°F16.2°C -- - Calm Calm -- 29.91 in1012.9 mb 0.00 in0.0 mm 0.00 in0.0 mm 0.00 in0.0 mm
03:46 AM 61.2°F16.2°C -- - Calm Calm -- 29.91 in1012.9 mb 0.00 in0.0 mm 0.00 in0.0 mm 0.00 in0.0 mm
03:52 AM 61.2°F16.2°C -- - Calm Calm -- 29.91 in1012.9 mb 0.00 in0.0 mm 0.00 in0.0 mm 0.00 in0.0 mm
03:57 AM 61.2°F16.2°C -- - Calm Calm -- 29.91 in1012.9 mb 0.00 in0.0 mm 0.00 in0.0 mm 0.00 in0.0 mm
04:02 AM 61.2°F16.2°C -- - Calm Calm -- 29.91 in1012.9 mb 0.00 in0.0 mm 0.00 in0.0 mm 0.00 in0.0 mm
04:08 AM 61.4°F16.3°C -- - Calm Calm -- 29.91 in1012.9 mb 0.00 in0.0 mm 0.00 in0.0 mm 0.00 in0.0 mm
04:13 AM 61.4°F16.3°C -- - Calm Calm -- 29.91 in1012.9 mb 0.00 in0.0 mm 0.00 in0.0 mm 0.00 in0.0 mm
04:18 AM 61.4°F16.3°C -- - Calm Calm -- 29.91 in1012.9 mb 0.00 in0.0 mm 0.00 in0.0 mm 0.00 in0.0 mm
04:24 AM 61.4°F16.3°C -- - Calm Calm -- 29.91 in1012.9 mb 0.00 in0.0 mm 0.00 in0.0 mm 0.00 in0.0 mm
04:32 AM 61.4°F16.3°C -- - Calm Calm -- 29.92 in1013.2 mb 0.00 in0.0 mm 0.00 in0.0 mm 0.00 in0.0 mm
04:37 AM 61.4°F16.3°C -- - Calm Calm -- 29.92 in1013.2 mb 0.00 in0.0 mm 0.00 in0.0 mm 0.00 in0.0 mm
04:42 AM 61.4°F16.3°C -- - Calm Calm -- 29.92 in1013.2 mb 0.00 in0.0 mm 0.00 in0.0 mm 0.00 in0.0 mm
04:48 AM 61.6°F16.4°C -- - Calm Calm -- 29.92 in1013.2 mb 0.00 in0.0 mm 0.00 in0.0 mm 0.00 in0.0 mm
04:53 AM 61.6°F16.4°C -- - Calm Calm -- 29.92 in1013.2 mb 0.00 in0.0 mm 0.00 in0.0 mm 0.00 in0.0 mm
04:58 AM 61.6°F16.4°C -- - Calm Calm -- 29.92 in1013.2 mb 0.00 in0.0 mm 0.00 in0.0 mm 0.00 in0.0 mm
05:03 AM 61.6°F16.4°C -- - Calm Calm -- 29.92 in1013.2 mb 0.00 in0.0 mm 0.00 in0.0 mm 0.00 in0.0 mm
05:08 AM 61.6°F16.4°C -- - Calm Calm -- 29.92 in1013.2 mb 0.00 in0.0 mm 0.00 in0.0 mm 0.00 in0.0 mm
05:13 AM 61.7°F16.5°C -- - Calm Calm -- 29.92 in1013.2 mb 0.00 in0.0 mm 0.00 in0.0 mm 0.00 in0.0 mm
05:21 AM 61.7°F16.5°C -- - Calm Calm -- 29.92 in1013.2 mb 0.00 in0.0 mm 0.00 in0.0 mm 0.00 in0.0 mm
05:26 AM 61.7°F16.5°C -- - Calm Calm -- 29.92 in1013.2 mb 0.00 in0.0 mm 0.00 in0.0 mm 0.00 in0.0 mm
05:31 AM 61.7°F16.5°C -- - Calm Calm -- 29.92 in1013.2 mb 0.00 in0.0 mm 0.00 in0.0 mm 0.00 in0.0 mm
05:36 AM 61.7°F16.5°C -- - Calm Calm -- 29.93 in1013.5 mb 0.00 in0.0 mm 0.00 in0.0 mm 0.00 in0.0 mm
05:41 AM 61.7°F16.5°C -- - Calm Calm -- 29.93 in1013.5 mb 0.00 in0.0 mm 0.00 in0.0 mm 0.00 in0.0 mm
05:46 AM 61.7°F16.5°C -- - Calm Calm -- 29.93 in1013.5 mb 0.00 in0.0 mm 0.00 in0.0 mm 0.00 in0.0 mm
05:51 AM 61.7°F16.5°C -- - Calm Calm -- 29.93 in1013.5 mb 0.00 in0.0 mm 0.00 in0.0 mm 0.00 in0.0 mm
05:58 AM 61.7°F16.5°C -- - Calm Calm -- 29.93 in1013.5 mb 0.00 in0.0 mm 0.00 in0.0 mm 0.00 in0.0 mm
06:05 AM 61.7°F16.5°C -- - Calm Calm -- 29.93 in1013.5 mb 0.00 in0.0 mm 0.00 in0.0 mm 0.00 in0.0 mm
06:11 AM 61.9°F16.6°C -- - Calm Calm -- 29.93 in1013.5 mb 0.00 in0.0 mm 0.00 in0.0 mm 0.00 in0.0 mm
06:16 AM 61.9°F16.6°C -- - Calm Calm -- 29.93 in1013.5 mb 0.00 in0.0 mm 0.00 in0.0 mm 0.00 in0.0 mm
06:21 AM 61.9°F16.6°C -- - Calm Calm -- 29.94 in1013.9 mb 0.00 in0.0 mm 0.00 in0.0 mm 0.00 in0.0 mm
06:26 AM 61.9°F16.6°C -- - Calm Calm -- 29.94 in1013.9 mb 0.00 in0.0 mm 0.00 in0.0 mm 0.00 in0.0 mm
06:31 AM 61.9°F16.6°C -- - Calm Calm -- 29.94 in1013.9 mb 0.00 in0.0 mm 0.00 in0.0 mm 0.00 in0.0 mm
06:38 AM 62.1°F16.7°C -- - Calm Calm -- 29.94 in1013.9 mb 0.00 in0.0 mm 0.00 in0.0 mm 0.00 in0.0 mm
06:43 AM 61.9°F16.6°C -- - Calm Calm -- 29.94 in1013.9 mb 0.00 in0.0 mm 0.00 in0.0 mm 0.00 in0.0 mm
06:48 AM 62.1°F16.7°C -- - Calm Calm -- 29.94 in1013.9 mb 0.00 in0.0 mm 0.00 in0.0 mm 0.00 in0.0 mm
06:53 AM 61.9°F16.6°C -- - Calm Calm -- 29.94 in1013.9 mb 0.00 in0.0 mm 0.00 in0.0 mm 0.00 in0.0 mm
06:58 AM 62.1°F16.7°C -- - Calm Calm -- 29.94 in1013.9 mb 0.00 in0.0 mm 0.00 in0.0 mm 0.00 in0.0 mm
07:04 AM 62.3°F16.8°C -- - Calm Calm -- 29.94 in1013.9 mb 0.00 in0.0 mm 0.00 in0.0 mm 0.00 in0.0 mm
07:09 AM 62.3°F16.8°C -- - Calm Calm -- 29.94 in1013.9 mb 0.00 in0.0 mm 0.00 in0.0 mm 0.00 in0.0 mm
07:14 AM 62.5°F16.9°C -- - Calm Calm -- 29.94 in1013.9 mb 0.00 in0.0 mm 0.00 in0.0 mm 0.00 in0.0 mm
07:20 AM 62.5°F16.9°C -- - Calm Calm -- 29.95 in1014.2 mb 0.00 in0.0 mm 0.00 in0.0 mm 0.00 in0.0 mm
07:26 AM 62.6°F17.0°C -- - Calm Calm -- 29.95 in1014.2 mb 0.00 in0.0 mm 0.00 in0.0 mm 0.00 in0.0 mm
07:31 AM 62.6°F17.0°C -- - Calm Calm -- 29.95 in1014.2 mb 0.00 in0.0 mm 0.00 in0.0 mm 0.00 in0.0 mm
07:36 AM 62.8°F17.1°C -- - Calm Calm -- 29.95 in1014.2 mb 0.00 in0.0 mm 0.00 in0.0 mm 0.00 in0.0 mm
07:41 AM 63.2°F17.3°C -- - Calm Calm -- 29.95 in1014.2 mb 0.00 in0.0 mm 0.00 in0.0 mm 0.00 in0.0 mm
07:48 AM 63.2°F17.3°C -- - Calm Calm -- 29.95 in1014.2 mb 0.00 in0.0 mm 0.00 in0.0 mm 0.00 in0.0 mm
07:53 AM 63.2°F17.3°C -- - Calm Calm -- 29.95 in1014.2 mb 0.00 in0.0 mm 0.00 in0.0 mm 0.00 in0.0 mm
07:56 AM 63.2°F17.3°C -- - Calm Calm -- 29.96 in1014.6 mb 0.00 in0.0 mm 0.00 in0.0 mm 0.00 in0.0 mm
08:03 AM 0.0°F-17.8°C -- - Calm Calm -- 29.95 in1014.2 mb 0.00 in0.0 mm 0.00 in0.0 mm 0.00 in0.0 mm
08:09 AM 0.0°F-17.8°C -- - Calm Calm -- 29.96 in1014.6 mb 0.00 in0.0 mm 0.00 in0.0 mm 0.00 in0.0 mm
08:14 AM 0.0°F-17.8°C -- - Calm Calm -- 29.96 in1014.6 mb 0.00 in0.0 mm 0.00 in0.0 mm 0.00 in0.0 mm
08:20 AM 0.0°F-17.8°C -- - Calm Calm -- 29.96 in1014.6 mb 0.00 in0.0 mm 0.00 in0.0 mm 0.00 in0.0 mm
08:25 AM 0.0°F-17.8°C -- - Calm Calm -- 29.96 in1014.6 mb 0.00 in0.0 mm 0.00 in0.0 mm 0.00 in0.0 mm
08:30 AM 0.0°F-17.8°C -- - Calm Calm -- 29.96 in1014.6 mb 0.00 in0.0 mm 0.00 in0.0 mm 0.00 in0.0 mm
08:35 AM 0.0°F-17.8°C -- - Calm Calm -- 29.96 in1014.6 mb 0.00 in0.0 mm 0.00 in0.0 mm 0.00 in0.0 mm
08:40 AM 0.0°F-17.8°C -- - Calm Calm -- 29.96 in1014.6 mb 0.00 in0.0 mm 0.00 in0.0 mm 0.00 in0.0 mm
08:46 AM 0.0°F-17.8°C -- - Calm Calm -- 29.96 in1014.6 mb 0.00 in0.0 mm 0.00 in0.0 mm 0.00 in0.0 mm
08:51 AM 0.0°F-17.8°C -- - Calm Calm -- 29.96 in1014.6 mb 0.00 in0.0 mm 0.00 in0.0 mm 0.00 in0.0 mm
08:57 AM 0.0°F-17.8°C -- - Calm Calm -- 29.96 in1014.6 mb 0.00 in0.0 mm 0.00 in0.0 mm 0.00 in0.0 mm
09:00 AM 0.0°F-17.8°C -- - Calm Calm -- 29.96 in1014.6 mb 0.00 in0.0 mm 0.00 in0.0 mm 0.00 in0.0 mm
09:08 AM 0.0°F-17.8°C -- - Calm Calm -- 29.96 in1014.6 mb 0.00 in0.0 mm 0.00 in0.0 mm 0.00 in0.0 mm
09:14 AM 0.0°F-17.8°C -- - Calm Calm -- 29.96 in1014.6 mb 0.00 in0.0 mm 0.00 in0.0 mm 0.00 in0.0 mm
09:19 AM 0.0°F-17.8°C -- - Calm Calm -- 29.96 in1014.6 mb 0.00 in0.0 mm 0.00 in0.0 mm 0.00 in0.0 mm
09:25 AM 0.0°F-17.8°C -- - Calm Calm -- 29.96 in1014.6 mb 0.00 in0.0 mm 0.00 in0.0 mm 0.00 in0.0 mm
09:30 AM 0.0°F-17.8°C -- - Calm Calm -- 29.96 in1014.6 mb 0.00 in0.0 mm 0.00 in0.0 mm 0.00 in0.0 mm
09:35 AM 0.0°F-17.8°C -- - Calm Calm -- 29.96 in1014.6 mb 0.00 in0.0 mm 0.00 in0.0 mm 0.00 in0.0 mm
09:40 AM 0.0°F-17.8°C -- - Calm Calm -- 29.96 in1014.6 mb 0.00 in0.0 mm 0.00 in0.0 mm 0.00 in0.0 mm
09:45 AM 0.0°F-17.8°C -- - Calm Calm -- 29.96 in1014.6 mb 0.00 in0.0 mm 0.00 in0.0 mm 0.00 in0.0 mm
09:50 AM 0.0°F-17.8°C -- - Calm Calm -- 29.96 in1014.6 mb 0.00 in0.0 mm 0.00 in0.0 mm 0.00 in0.0 mm
09:55 AM 0.0°F-17.8°C -- - Calm Calm -- 29.96 in1014.6 mb 0.00 in0.0 mm 0.00 in0.0 mm 0.00 in0.0 mm
10:02 AM 0.0°F-17.8°C -- - Calm Calm -- 29.96 in1014.6 mb 0.00 in0.0 mm 0.00 in0.0 mm 0.00 in0.0 mm
10:08 AM 67.1°F19.5°C -- - Calm Calm -- 29.96 in1014.6 mb 0.00 in0.0 mm 0.00 in0.0 mm 0.00 in0.0 mm
10:14 AM 67.3°F19.6°C -- - Calm Calm -- 29.96 in1014.6 mb 0.00 in0.0 mm 0.00 in0.0 mm 0.00 in0.0 mm
10:19 AM 67.3°F19.6°C -- - Calm Calm -- 29.96 in1014.6 mb 0.00 in0.0 mm 0.00 in0.0 mm 0.00 in0.0 mm
10:25 AM 67.3°F19.6°C -- - Calm Calm -- 29.96 in1014.6 mb 0.00 in0.0 mm 0.00 in0.0 mm 0.00 in0.0 mm
10:30 AM 67.3°F19.6°C -- - Calm Calm -- 29.96 in1014.6 mb 0.00 in0.0 mm 0.00 in0.0 mm 0.00 in0.0 mm
10:36 AM 67.5°F19.7°C -- - Calm Calm -- 29.96 in1014.6 mb 0.00 in0.0 mm 0.00 in0.0 mm 0.00 in0.0 mm
10:41 AM 67.5°F19.7°C -- - Calm Calm -- 29.96 in1014.6 mb 0.00 in0.0 mm 0.00 in0.0 mm 0.00 in0.0 mm
10:46 AM 67.3°F19.6°C -- - Calm Calm -- 29.95 in1014.2 mb 0.00 in0.0 mm 0.00 in0.0 mm 0.00 in0.0 mm
10:51 AM 67.3°F19.6°C -- - Calm Calm -- 29.96 in1014.6 mb 0.00 in0.0 mm 0.00 in0.0 mm 0.00 in0.0 mm
10:56 AM 67.0°F19.4°C -- - Calm Calm -- 29.96 in1014.6 mb 0.00 in0.0 mm 0.00 in0.0 mm 0.00 in0.0 mm
11:02 AM 67.1°F19.5°C -- - Calm Calm -- 29.96 in1014.6 mb 0.00 in0.0 mm 0.00 in0.0 mm 0.00 in0.0 mm
11:07 AM 67.9°F19.9°C -- - Calm Calm -- 29.96 in1014.6 mb 0.00 in0.0 mm 0.00 in0.0 mm 0.00 in0.0 mm
11:14 AM 67.9°F19.9°C -- - Calm Calm -- 29.96 in1014.6 mb 0.00 in0.0 mm 0.00 in0.0 mm 0.00 in0.0 mm
11:19 AM 68.0°F20.0°C -- - Calm Calm -- 29.96 in1014.6 mb 0.00 in0.0 mm 0.00 in0.0 mm 0.00 in0.0 mm
11:25 AM 68.2°F20.1°C -- - Calm Calm -- 29.96 in1014.6 mb 0.00 in0.0 mm 0.00 in0.0 mm 0.00 in0.0 mm
11:32 AM 68.0°F20.0°C -- - Calm Calm -- 29.96 in1014.6 mb 0.00 in0.0 mm 0.00 in0.0 mm 0.00 in0.0 mm
11:37 AM 68.4°F20.2°C -- - Calm Calm -- 29.95 in1014.2 mb 0.00 in0.0 mm 0.00 in0.0 mm 0.00 in0.0 mm
11:45 AM 68.4°F20.2°C -- - Calm Calm -- 29.95 in1014.2 mb 0.00 in0.0 mm 0.00 in0.0 mm 0.00 in0.0 mm
11:50 AM 68.8°F20.4°C -- - Calm Calm -- 29.95 in1014.2 mb 0.00 in0.0 mm 0.00 in0.0 mm 0.00 in0.0 mm
11:55 AM 68.9°F20.5°C -- - Calm Calm -- 29.95 in1014.2 mb 0.00 in0.0 mm 0.00 in0.0 mm 0.00 in0.0 mm
12:00 PM 69.5°F20.8°C -- - Calm Calm -- 29.96 in1014.6 mb 0.00 in0.0 mm 0.00 in0.0 mm 0.00 in0.0 mm
12:05 PM 69.3°F20.7°C -- - Calm Calm -- 29.96 in1014.6 mb 0.00 in0.0 mm 0.00 in0.0 mm 0.00 in0.0 mm
12:10 PM 69.1°F20.6°C -- - Calm Calm -- 29.96 in1014.6 mb 0.00 in0.0 mm 0.00 in0.0 mm 0.00 in0.0 mm
12:15 PM 69.1°F20.6°C -- - Calm Calm -- 29.95 in1014.2 mb 0.00 in0.0 mm 0.00 in0.0 mm 0.00 in0.0 mm
12:20 PM 68.8°F20.4°C -- - Calm Calm -- 29.95 in1014.2 mb 0.00 in0.0 mm 0.00 in0.0 mm 0.00 in0.0 mm
12:25 PM 68.9°F20.5°C -- - Calm Calm -- 29.95 in1014.2 mb 0.00 in0.0 mm 0.00 in0.0 mm 0.00 in0.0 mm
12:30 PM 68.9°F20.5°C -- - Calm Calm -- 29.95 in1014.2 mb 0.00 in0.0 mm 0.00 in0.0 mm 0.00 in0.0 mm
12:36 PM 69.5°F20.8°C -- - Calm Calm -- 29.95 in1014.2 mb 0.00 in0.0 mm 0.00 in0.0 mm 0.00 in0.0 mm
12:41 PM 69.5°F20.8°C -- - Calm Calm -- 29.96 in1014.6 mb 0.00 in0.0 mm 0.00 in0.0 mm 0.00 in0.0 mm
12:47 PM 69.7°F20.9°C -- - Calm Calm -- 29.96 in1014.6 mb 0.00 in0.0 mm 0.00 in0.0 mm 0.00 in0.0 mm
12:52 PM 69.8°F21.0°C -- - Calm Calm -- 29.96 in1014.6 mb 0.00 in0.0 mm 0.00 in0.0 mm 0.00 in0.0 mm
12:57 PM 69.8°F21.0°C -- - Calm Calm -- 29.96 in1014.6 mb 0.00 in0.0 mm 0.00 in0.0 mm 0.00 in0.0 mm
01:02 PM 70.0°F21.1°C -- - Calm Calm -- 29.96 in1014.6 mb 0.00 in0.0 mm 0.00 in0.0 mm 0.00 in0.0 mm
01:07 PM 69.8°F21.0°C -- - Calm Calm -- 29.96 in1014.6 mb 0.00 in0.0 mm 0.00 in0.0 mm 0.00 in0.0 mm
01:12 PM 69.7°F20.9°C -- - Calm Calm -- 29.96 in1014.6 mb 0.00 in0.0 mm 0.00 in0.0 mm 0.00 in0.0 mm
01:17 PM 69.5°F20.8°C -- - Calm Calm -- 29.96 in1014.6 mb 0.00 in0.0 mm 0.00 in0.0 mm 0.00 in0.0 mm
01:22 PM 69.3°F20.7°C -- - Calm Calm -- 29.96 in1014.6 mb 0.00 in0.0 mm 0.00 in0.0 mm 0.00 in0.0 mm
01:28 PM 69.5°F20.8°C -- - Calm Calm -- 29.96 in1014.6 mb 0.00 in0.0 mm 0.00 in0.0 mm 0.00 in0.0 mm
01:33 PM 69.8°F21.0°C -- - Calm Calm -- 29.96 in1014.6 mb 0.00 in0.0 mm 0.00 in0.0 mm 0.00 in0.0 mm
01:39 PM 70.0°F21.1°C -- - Calm Calm -- 29.96 in1014.6 mb 0.00 in0.0 mm 0.00 in0.0 mm 0.00 in0.0 mm
01:44 PM 70.0°F21.1°C -- - Calm Calm -- 29.96 in1014.6 mb 0.00 in0.0 mm 0.00 in0.0 mm 0.00 in0.0 mm
01:51 PM 69.7°F20.9°C -- - Calm Calm -- 29.96 in1014.6 mb 0.00 in0.0 mm 0.00 in0.0 mm 0.00 in0.0 mm
01:56 PM 69.5°F20.8°C -- - Calm Calm -- 29.96 in1014.6 mb 0.00 in0.0 mm 0.00 in0.0 mm 0.00 in0.0 mm
02:03 PM 69.1°F20.6°C -- - Calm Calm -- 29.96 in1014.6 mb 0.00 in0.0 mm 0.00 in0.0 mm 0.00 in0.0 mm
02:09 PM 69.1°F20.6°C -- - Calm Calm -- 29.96 in1014.6 mb 0.00 in0.0 mm 0.00 in0.0 mm 0.00 in0.0 mm
02:14 PM 69.5°F20.8°C -- - Calm Calm -- 29.95 in1014.2 mb 0.00 in0.0 mm 0.00 in0.0 mm 0.00 in0.0 mm
02:19 PM 69.7°F20.9°C -- - Calm Calm -- 29.96 in1014.6 mb 0.00 in0.0 mm 0.00 in0.0 mm 0.00 in0.0 mm
02:24 PM 70.0°F21.1°C -- - Calm Calm -- 29.96 in1014.6 mb 0.00 in0.0 mm 0.00 in0.0 mm 0.00 in0.0 mm
02:31 PM 69.7°F20.9°C -- - Calm Calm -- 29.95 in1014.2 mb 0.00 in0.0 mm 0.00 in0.0 mm 0.00 in0.0 mm
02:36 PM 69.7°F20.9°C -- - Calm Calm -- 29.95 in1014.2 mb 0.00 in0.0 mm 0.00 in0.0 mm 0.00 in0.0 mm
02:41 PM 69.5°F20.8°C -- - Calm Calm -- 29.95 in1014.2 mb 0.00 in0.0 mm 0.00 in0.0 mm 0.00 in0.0 mm
02:47 PM 69.5°F20.8°C -- - Calm Calm -- 29.95 in1014.2 mb 0.00 in0.0 mm 0.00 in0.0 mm 0.00 in0.0 mm
02:52 PM 69.7°F20.9°C -- - Calm Calm -- 29.95 in1014.2 mb 0.00 in0.0 mm 0.00 in0.0 mm 0.00 in0.0 mm
02:57 PM 69.1°F20.6°C -- - Calm Calm -- 29.95 in1014.2 mb 0.00 in0.0 mm 0.00 in0.0 mm 0.00 in0.0 mm
03:02 PM 69.1°F20.6°C -- - Calm Calm -- 29.95 in1014.2 mb 0.00 in0.0 mm 0.00 in0.0 mm 0.00 in0.0 mm
03:07 PM 69.3°F20.7°C -- - Calm Calm -- 29.95 in1014.2 mb 0.00 in0.0 mm 0.00 in0.0 mm 0.00 in0.0 mm
03:12 PM 69.5°F20.8°C -- - Calm Calm -- 29.95 in1014.2 mb 0.00 in0.0 mm 0.00 in0.0 mm 0.00 in0.0 mm
03:17 PM 69.3°F20.7°C -- - Calm Calm -- 29.96 in1014.6 mb 0.00 in0.0 mm 0.00 in0.0 mm 0.00 in0.0 mm
03:22 PM 69.1°F20.6°C -- - Calm Calm -- 29.96 in1014.6 mb 0.00 in0.0 mm 0.00 in0.0 mm 0.00 in0.0 mm
03:30 PM 68.8°F20.4°C -- - Calm Calm -- 29.96 in1014.6 mb 0.00 in0.0 mm 0.00 in0.0 mm 0.00 in0.0 mm
03:35 PM 68.8°F20.4°C -- - Calm Calm -- 29.96 in1014.6 mb 0.00 in0.0 mm 0.00 in0.0 mm 0.00 in0.0 mm
03:40 PM 68.2°F20.1°C -- - Calm Calm -- 29.96 in1014.6 mb 0.00 in0.0 mm 0.00 in0.0 mm 0.00 in0.0 mm
03:45 PM 68.4°F20.2°C -- - Calm Calm -- 29.96 in1014.6 mb 0.00 in0.0 mm 0.00 in0.0 mm 0.00 in0.0 mm
03:51 PM 68.0°F20.0°C -- - Calm Calm -- 29.96 in1014.6 mb 0.00 in0.0 mm 0.00 in0.0 mm 0.00 in0.0 mm
03:56 PM 68.0°F20.0°C -- - Calm Calm -- 29.96 in1014.6 mb 0.00 in0.0 mm 0.00 in0.0 mm 0.00 in0.0 mm
04:02 PM 67.7°F19.8°C -- - Calm Calm -- 29.96 in1014.6 mb 0.00 in0.0 mm 0.00 in0.0 mm 0.00 in0.0 mm
04:07 PM 67.7°F19.8°C -- - Calm Calm -- 29.96 in1014.6 mb 0.00 in0.0 mm 0.00 in0.0 mm 0.00 in0.0 mm
04:13 PM 67.5°F19.7°C -- - Calm Calm -- 29.96 in1014.6 mb 0.00 in0.0 mm 0.00 in0.0 mm 0.00 in0.0 mm
04:18 PM 67.5°F19.7°C -- - Calm Calm -- 29.96 in1014.6 mb 0.00 in0.0 mm 0.00 in0.0 mm 0.00 in0.0 mm
04:23 PM 67.0°F19.4°C -- - Calm Calm -- 29.96 in1014.6 mb 0.00 in0.0 mm 0.00 in0.0 mm 0.00 in0.0 mm
04:29 PM 67.3°F19.6°C -- - Calm Calm -- 29.96 in1014.6 mb 0.00 in0.0 mm 0.00 in0.0 mm 0.00 in0.0 mm
04:36 PM 67.0°F19.4°C -- - Calm Calm -- 29.96 in1014.6 mb 0.00 in0.0 mm 0.00 in0.0 mm 0.00 in0.0 mm
04:40 PM 66.6°F19.2°C -- - Calm Calm -- 29.95 in1014.2 mb 0.00 in0.0 mm 0.00 in0.0 mm 0.00 in0.0 mm
04:47 PM 66.6°F19.2°C -- - Calm Calm -- 29.95 in1014.2 mb 0.00 in0.0 mm 0.00 in0.0 mm 0.00 in0.0 mm
04:52 PM 66.6°F19.2°C -- - Calm Calm -- 29.95 in1014.2 mb 0.00 in0.0 mm 0.00 in0.0 mm 0.00 in0.0 mm
04:57 PM 67.0°F19.4°C -- - Calm Calm -- 29.95 in1014.2 mb 0.00 in0.0 mm 0.00 in0.0 mm 0.00 in0.0 mm
05:02 PM 67.0°F19.4°C -- - Calm Calm -- 29.95 in1014.2 mb 0.00 in0.0 mm 0.00 in0.0 mm 0.00 in0.0 mm
05:07 PM 67.0°F19.4°C -- - Calm Calm -- 29.95 in1014.2 mb 0.00 in0.0 mm 0.00 in0.0 mm 0.00 in0.0 mm
05:12 PM 66.8°F19.3°C -- - Calm Calm -- 29.95 in1014.2 mb 0.00 in0.0 mm 0.00 in0.0 mm 0.00 in0.0 mm
05:17 PM 66.2°F19.0°C -- - Calm Calm -- 29.95 in1014.2 mb 0.00 in0.0 mm 0.00 in0.0 mm 0.00 in0.0 mm
05:23 PM 66.4°F19.1°C -- - Calm Calm -- 29.95 in1014.2 mb 0.00 in0.0 mm 0.00 in0.0 mm 0.00 in0.0 mm
05:29 PM 67.1°F19.5°C -- - Calm Calm -- 29.96 in1014.6 mb 0.00 in0.0 mm 0.00 in0.0 mm 0.00 in0.0 mm
05:34 PM 66.8°F19.3°C -- - Calm Calm -- 29.96 in1014.6 mb 0.00 in0.0 mm 0.00 in0.0 mm 0.00 in0.0 mm
05:40 PM 66.6°F19.2°C -- - Calm Calm -- 29.96 in1014.6 mb 0.00 in0.0 mm 0.00 in0.0 mm 0.00 in0.0 mm
05:45 PM 66.6°F19.2°C -- - Calm Calm -- 29.96 in1014.6 mb 0.00 in0.0 mm 0.00 in0.0 mm 0.00 in0.0 mm
05:53 PM 66.6°F19.2°C -- - Calm Calm -- 29.96 in1014.6 mb 0.00 in0.0 mm 0.00 in0.0 mm 0.00 in0.0 mm
05:59 PM 66.4°F19.1°C -- - Calm Calm -- 29.96 in1014.6 mb 0.00 in0.0 mm 0.00 in0.0 mm 0.00 in0.0 mm
06:06 PM 65.9°F18.8°C -- - Calm Calm -- 29.96 in1014.6 mb 0.00 in0.0 mm 0.00 in0.0 mm 0.00 in0.0 mm
06:11 PM 65.3°F18.5°C -- - Calm Calm -- 29.96 in1014.6 mb 0.00 in0.0 mm 0.00 in0.0 mm 0.00 in0.0 mm
06:18 PM 65.0°F18.3°C -- - Calm Calm -- 29.96 in1014.6 mb 0.00 in0.0 mm 0.00 in0.0 mm 0.00 in0.0 mm
06:27 PM 64.8°F18.2°C -- - Calm Calm -- 29.96 in1014.6 mb 0.00 in0.0 mm 0.00 in0.0 mm 0.00 in0.0 mm
06:32 PM 64.6°F18.1°C -- - Calm Calm -- 29.96 in1014.6 mb 0.00 in0.0 mm 0.00 in0.0 mm 0.00 in0.0 mm
06:37 PM 64.3°F17.9°C -- - Calm Calm -- 29.97 in1014.9 mb 0.00 in0.0 mm 0.00 in0.0 mm 0.00 in0.0 mm
06:42 PM 64.3°F17.9°C -- - Calm Calm -- 29.96 in1014.6 mb 0.00 in0.0 mm 0.00 in0.0 mm 0.00 in0.0 mm
06:47 PM 63.9°F17.7°C -- - Calm Calm -- 29.96 in1014.6 mb 0.00 in0.0 mm 0.00 in0.0 mm 0.00 in0.0 mm
06:53 PM 63.9°F17.7°C -- - Calm Calm -- 29.96 in1014.6 mb 0.00 in0.0 mm 0.00 in0.0 mm 0.00 in0.0 mm
06:58 PM 63.7°F17.6°C -- - Calm Calm -- 29.96 in1014.6 mb 0.00 in0.0 mm 0.00 in0.0 mm 0.00 in0.0 mm
07:03 PM 63.5°F17.5°C -- - Calm Calm -- 29.97 in1014.9 mb 0.00 in0.0 mm 0.00 in0.0 mm 0.00 in0.0 mm
07:08 PM 63.4°F17.4°C -- - Calm Calm -- 29.97 in1014.9 mb 0.00 in0.0 mm 0.00 in0.0 mm 0.00 in0.0 mm
07:13 PM 63.4°F17.4°C -- - Calm Calm -- 29.97 in1014.9 mb 0.00 in0.0 mm 0.00 in0.0 mm 0.00 in0.0 mm
07:18 PM 63.2°F17.3°C -- - Calm Calm -- 29.97 in1014.9 mb 0.00 in0.0 mm 0.00 in0.0 mm 0.00 in0.0 mm
07:23 PM 63.2°F17.3°C -- - Calm Calm -- 29.97 in1014.9 mb 0.00 in0.0 mm 0.00 in0.0 mm 0.00 in0.0 mm
07:29 PM 63.0°F17.2°C -- - Calm Calm -- 29.97 in1014.9 mb 0.00 in0.0 mm 0.00 in0.0 mm 0.00 in0.0 mm
07:34 PM 62.8°F17.1°C -- - Calm Calm -- 29.97 in1014.9 mb 0.00 in0.0 mm 0.00 in0.0 mm 0.00 in0.0 mm
07:39 PM 62.8°F17.1°C -- - Calm Calm -- 29.97 in1014.9 mb 0.00 in0.0 mm 0.00 in0.0 mm 0.00 in0.0 mm
07:44 PM 62.6°F17.0°C -- - Calm Calm -- 29.97 in1014.9 mb 0.00 in0.0 mm 0.00 in0.0 mm 0.00 in0.0 mm
07:50 PM 62.6°F17.0°C -- - Calm Calm -- 29.98 in1015.2 mb 0.00 in0.0 mm 0.00 in0.0 mm 0.00 in0.0 mm
07:55 PM 62.5°F16.9°C -- - Calm Calm -- 29.97 in1014.9 mb 0.00 in0.0 mm 0.00 in0.0 mm 0.00 in0.0 mm
08:00 PM 62.5°F16.9°C -- - Calm Calm -- 29.98 in1015.2 mb 0.00 in0.0 mm 0.00 in0.0 mm 0.00 in0.0 mm
08:06 PM 62.5°F16.9°C -- - Calm Calm -- 29.98 in1015.2 mb 0.00 in0.0 mm 0.00 in0.0 mm 0.00 in0.0 mm
08:12 PM 62.3°F16.8°C -- - Calm Calm -- 29.98 in1015.2 mb 0.00 in0.0 mm 0.00 in0.0 mm 0.00 in0.0 mm
08:19 PM 62.3°F16.8°C -- - Calm Calm -- 29.98 in1015.2 mb 0.00 in0.0 mm 0.00 in0.0 mm 0.00 in0.0 mm
08:24 PM 62.3°F16.8°C -- - Calm Calm -- 29.98 in1015.2 mb 0.00 in0.0 mm 0.00 in0.0 mm 0.00 in0.0 mm
08:29 PM 62.3°F16.8°C -- - Calm Calm -- 29.98 in1015.2 mb 0.00 in0.0 mm 0.00 in0.0 mm 0.00 in0.0 mm
08:34 PM 62.1°F16.7°C -- - Calm Calm -- 29.98 in1015.2 mb 0.00 in0.0 mm 0.00 in0.0 mm 0.00 in0.0 mm
08:39 PM 62.1°F16.7°C -- - Calm Calm -- 29.99 in1015.6 mb 0.00 in0.0 mm 0.00 in0.0 mm 0.00 in0.0 mm
08:44 PM 62.1°F16.7°C -- - Calm Calm -- 29.98 in1015.2 mb 0.00 in0.0 mm 0.00 in0.0 mm 0.00 in0.0 mm
08:50 PM 62.1°F16.7°C -- - Calm Calm -- 29.99 in1015.6 mb 0.00 in0.0 mm 0.00 in0.0 mm 0.00 in0.0 mm
08:55 PM 62.1°F16.7°C -- - Calm Calm -- 29.99 in1015.6 mb 0.00 in0.0 mm 0.00 in0.0 mm 0.00 in0.0 mm
09:01 PM 62.1°F16.7°C -- - Calm Calm -- 29.99 in1015.6 mb 0.00 in0.0 mm 0.00 in0.0 mm 0.00 in0.0 mm
09:07 PM 62.1°F16.7°C -- - Calm Calm -- 29.99 in1015.6 mb 0.00 in0.0 mm 0.00 in0.0 mm 0.00 in0.0 mm
09:12 PM 61.9°F16.6°C -- - Calm Calm -- 29.99 in1015.6 mb 0.00 in0.0 mm 0.00 in0.0 mm 0.00 in0.0 mm
09:17 PM 61.9°F16.6°C -- - Calm Calm -- 29.99 in1015.6 mb 0.00 in0.0 mm 0.00 in0.0 mm 0.00 in0.0 mm
09:22 PM 61.9°F16.6°C -- - Calm Calm -- 30.00 in1015.9 mb 0.00 in0.0 mm 0.00 in0.0 mm 0.00 in0.0 mm
09:28 PM 61.7°F16.5°C -- - Calm Calm -- 29.99 in1015.6 mb 0.00 in0.0 mm 0.00 in0.0 mm 0.00 in0.0 mm
09:33 PM 61.7°F16.5°C -- - Calm Calm -- 30.00 in1015.9 mb 0.00 in0.0 mm 0.00 in0.0 mm 0.00 in0.0 mm
09:39 PM 61.7°F16.5°C -- - Calm Calm -- 30.00 in1015.9 mb 0.00 in0.0 mm 0.00 in0.0 mm 0.00 in0.0 mm
09:44 PM 61.7°F16.5°C -- - Calm Calm -- 30.00 in1015.9 mb 0.00 in0.0 mm 0.00 in0.0 mm 0.00 in0.0 mm
09:49 PM 61.7°F16.5°C -- - Calm Calm -- 29.99 in1015.6 mb 0.00 in0.0 mm 0.00 in0.0 mm 0.00 in0.0 mm
09:54 PM 61.6°F16.4°C -- - Calm Calm -- 30.00 in1015.9 mb 0.00 in0.0 mm 0.00 in0.0 mm 0.00 in0.0 mm
09:59 PM 61.6°F16.4°C -- - Calm Calm -- 30.00 in1015.9 mb 0.00 in0.0 mm 0.00 in0.0 mm 0.00 in0.0 mm
10:05 PM 61.6°F16.4°C -- - Calm Calm -- 30.00 in1015.9 mb 0.00 in0.0 mm 0.00 in0.0 mm 0.00 in0.0 mm
10:10 PM 61.6°F16.4°C -- - Calm Calm -- 29.99 in1015.6 mb 0.00 in0.0 mm 0.00 in0.0 mm 0.00 in0.0 mm
10:15 PM 61.6°F16.4°C -- - Calm Calm -- 29.99 in1015.6 mb 0.00 in0.0 mm 0.00 in0.0 mm 0.00 in0.0 mm
10:22 PM 61.6°F16.4°C -- - Calm Calm -- 29.99 in1015.6 mb 0.00 in0.0 mm 0.00 in0.0 mm 0.00 in0.0 mm
10:27 PM 61.6°F16.4°C -- - Calm Calm -- 29.99 in1015.6 mb 0.00 in0.0 mm 0.00 in0.0 mm 0.00 in0.0 mm
10:33 PM 61.6°F16.4°C -- - Calm Calm -- 29.99 in1015.6 mb 0.00 in0.0 mm 0.00 in0.0 mm 0.00 in0.0 mm
10:38 PM 61.6°F16.4°C -- - Calm Calm -- 29.99 in1015.6 mb 0.00 in0.0 mm 0.00 in0.0 mm 0.00 in0.0 mm
10:43 PM 61.6°F16.4°C -- - Calm Calm -- 29.99 in1015.6 mb 0.00 in0.0 mm 0.00 in0.0 mm 0.00 in0.0 mm
10:48 PM 61.6°F16.4°C -- - Calm Calm -- 29.99 in1015.6 mb 0.00 in0.0 mm 0.00 in0.0 mm 0.00 in0.0 mm
10:53 PM 61.6°F16.4°C -- - Calm Calm -- 29.99 in1015.6 mb 0.00 in0.0 mm 0.00 in0.0 mm 0.00 in0.0 mm
10:58 PM 61.6°F16.4°C -- - Calm Calm -- 29.99 in1015.6 mb 0.00 in0.0 mm 0.00 in0.0 mm 0.00 in0.0 mm
11:04 PM 61.6°F16.4°C -- - Calm Calm -- 29.99 in1015.6 mb 0.00 in0.0 mm 0.00 in0.0 mm 0.00 in0.0 mm
11:11 PM 61.6°F16.4°C -- - Calm Calm -- 29.99 in1015.6 mb 0.00 in0.0 mm 0.00 in0.0 mm 0.00 in0.0 mm
11:16 PM 61.6°F16.4°C -- - Calm Calm -- 29.99 in1015.6 mb 0.00 in0.0 mm 0.00 in0.0 mm 0.00 in0.0 mm
11:21 PM 61.6°F16.4°C -- - Calm Calm -- 29.99 in1015.6 mb 0.00 in0.0 mm 0.00 in0.0 mm 0.00 in0.0 mm
11:26 PM 61.6°F16.4°C -- - Calm Calm -- 29.99 in1015.6 mb 0.00 in0.0 mm 0.00 in0.0 mm 0.00 in0.0 mm
11:33 PM 61.6°F16.4°C -- - Calm Calm -- 29.98 in1015.2 mb 0.00 in0.0 mm 0.00 in0.0 mm 0.00 in0.0 mm
11:39 PM 61.6°F16.4°C -- - Calm Calm -- 29.98 in1015.2 mb 0.00 in0.0 mm 0.00 in0.0 mm 0.00 in0.0 mm
11:44 PM 61.6°F16.4°C -- - Calm Calm -- 29.99 in1015.6 mb 0.00 in0.0 mm 0.00 in0.0 mm 0.00 in0.0 mm
11:50 PM 61.6°F16.4°C -- - Calm Calm -- 29.98 in1015.2 mb 0.00 in0.0 mm 0.00 in0.0 mm 0.00 in0.0 mm
11:56 PM 61.6°F16.4°C -- - Calm Calm -- 29.98 in1015.2 mb 0.00 in0.0 mm 0.00 in0.0 mm 0.00 in0.0 mm